| time (UTC) | temp F | wind direction | speed knots | gust knots | rain 1hr in | rain 24hr in | rain mn in | humidity % | barometer mb |
| 20260509113537 | 49 | 192 | 1.7 | 6.1 | 0.04 | 0.18 | 0.04 | 91 | 1008.5 |
| 20260509113043 | 48 | 217 | 1.7 | 6.1 | 0.03 | 0.17 | 0.03 | 90 | 1008.5 |
| 20260509112536 | 48 | 229 | 2.6 | 6.1 | 0.03 | 0.17 | 0.03 | 90 | 1008.6 |
| 20260509112036 | 48 | 219 | 1.7 | 4.3 | 0.02 | 0.16 | 0.02 | 90 | 1008.4 |
| 20260509111551 | 48 | 148 | 0.9 | 4.3 | 0.02 | 0.16 | 0.02 | 90 | 1008.4 |
| 20260509111053 | 49 | 186 | 0.9 | 4.3 | 0.01 | 0.15 | 0.01 | 89 | 1008.5 |
| 20260509110535 | 49 | 193 | 0.9 | 7.8 | 0.01 | 0.15 | 0.01 | 89 | 1008.3 |
| 20260509110048 | 49 | 169 | 1.7 | 7.8 | 0.01 | 0.15 | 0.01 | 89 | 1008.5 |
| 20260509105540 | 49 | 210 | 0.9 | 3.5 | 0.00 | 0.14 | 0.00 | 88 | 1008.5 |
| 20260509105036 | 49 | 166 | 0.9 | 5.2 | 0.00 | 0.14 | 0.00 | 88 | 1008.3 |
| 20260509104543 | 49 | 205 | 1.7 | 5.2 | 0.00 | 0.14 | 0.00 | 88 | 1008.2 |
| 20260509104037 | 49 | 203 | 1.7 | 6.1 | 0.00 | 0.14 | 0.00 | 87 | 1008.2 |
| 20260509103537 | 49 | 162 | 1.7 | 6.1 | 0.00 | 0.14 | 0.00 | 87 | 1008.2 |
| 20260509103054 | 49 | 165 | 1.7 | 7.8 | 0.00 | 0.14 | 0.00 | 87 | 1008.0 |
| 20260509102537 | 48 | 212 | 1.7 | 7.8 | 0.00 | 0.14 | 0.00 | 88 | 1008.0 |
| 20260509102037 | 48 | 210 | 2.6 | 6.1 | 0.00 | 0.14 | 0.00 | 89 | 1008.0 |
| 20260509101601 | 47 | 202 | 0.0 | 2.6 | 0.00 | 0.14 | 0.00 | 89 | 1008.0 |
| 20260509101036 | 46 | 253 | 0.0 | 2.6 | 0.00 | 0.14 | 0.00 | 88 | 1008.0 |
| 20260509100536 | 46 | 0 | 0.0 | 3.5 | 0.00 | 0.14 | 0.00 | 86 | 1008.1 |
| 20260509100045 | 46 | 0 | 0.9 | 3.5 | 0.00 | 0.14 | 0.00 | 87 | 1008.1 |
| 20260509095536 | 46 | 215 | 0.0 | 0.9 | 0.00 | 0.14 | 0.00 | 87 | 1008.1 |
| 20260509095036 | 46 | 212 | 0.0 | 0.9 | 0.00 | 0.14 | 0.00 | 86 | 1008.2 |
| 20260509094553 | 46 | 0 | 0.0 | 0.9 | 0.00 | 0.14 | 0.00 | 86 | 1008.2 |
| 20260509094039 | 46 | 0 | 0.0 | 0.9 | 0.00 | 0.14 | 0.00 | 86 | 1008.2 |
| 20260509093537 | 46 | 191 | 0.0 | 0.9 | 0.00 | 0.14 | 0.00 | 86 | 1008.2 |
| 20260509093050 | 46 | 0 | 0.0 | 1.7 | 0.00 | 0.14 | 0.00 | 86 | 1008.2 |
| 20260509092536 | 46 | 0 | 0.0 | 3.5 | 0.00 | 0.14 | 0.00 | 85 | 1008.3 |
| 20260509092036 | 46 | 149 | 0.9 | 3.5 | 0.00 | 0.14 | 0.00 | 85 | 1008.3 |
| 20260509091549 | 46 | 145 | 0.0 | 2.6 | 0.00 | 0.14 | 0.00 | 85 | 1008.0 |
| 20260509091039 | 46 | 134 | 0.9 | 1.7 | 0.00 | 0.14 | 0.00 | 85 | 1007.9 |
| 20260509090540 | 46 | 221 | 0.0 | 0.9 | 0.00 | 0.14 | 0.00 | 85 | 1008.1 |
| 20260509090100 | 46 | 0 | 0.0 | 0.9 | 0.00 | 0.14 | 0.00 | 84 | 1008.0 |
| 20260509085537 | 46 | 225 | 0.0 | 0.9 | 0.00 | 0.14 | 0.00 | 84 | 1008.2 |
| 20260509085036 | 46 | 0 | 0.0 | 1.7 | 0.00 | 0.14 | 0.00 | 84 | 1008.1 |
| 20260509084550 | 46 | 0 | 0.0 | 1.7 | 0.00 | 0.14 | 0.00 | 83 | 1008.2 |
| 20260509084035 | 46 | 0 | 0.0 | 1.7 | 0.00 | 0.14 | 0.00 | 83 | 1008.2 |
| 20260509083536 | 46 | 0 | 0.0 | 2.6 | 0.00 | 0.14 | 0.00 | 83 | 1008.4 |
| 20260509083053 | 46 | 0 | 0.0 | 2.6 | 0.00 | 0.14 | 0.00 | 83 | 1008.6 |
| 20260509082536 | 46 | 193 | 0.9 | 2.6 | 0.00 | 0.14 | 0.00 | 84 | 1008.5 |
| 20260509082036 | 45 | 198 | 0.0 | 1.7 | 0.00 | 0.14 | 0.00 | 83 | 1008.5 |
| 20260509081548 | 45 | 219 | 0.0 | 0.9 | 0.00 | 0.14 | 0.00 | 83 | 1008.5 |
| 20260509081036 | 45 | 0 | 0.0 | 0.9 | 0.00 | 0.14 | 0.00 | 83 | 1008.6 |
| 20260509080536 | 45 | 159 | 0.0 | 0.9 | 0.00 | 0.14 | 0.00 | 83 | 1008.6 |
| 20260509080045 | 44 | 0 | 0.0 | 0.9 | 0.00 | 0.14 | 0.00 | 82 | 1008.6 |
| 20260509075537 | 44 | 136 | 0.0 | 0.9 | 0.00 | 0.14 | 0.00 | 81 | 1008.7 |
| 20260509075036 | 44 | 0 | 0.0 | 0.0 | 0.00 | 0.14 | 0.00 | 80 | 1008.9 |
| 20260509074544 | 44 | 0 | 0.0 | 0.0 | 0.00 | 0.14 | 0.00 | 81 | 1008.8 |
| 20260509074036 | 44 | 0 | 0.0 | 0.9 | 0.00 | 0.14 | 0.00 | 82 | 1008.7 |
| 20260509073539 | 44 | 0 | 0.0 | 0.9 | 0.00 | 0.14 | 0.00 | 82 | 1008.9 |
| 20260509073039 | 43 | 0 | 0.0 | 0.0 | 0.00 | 0.14 | 0.00 | 83 | 1008.9 |
| 20260509072536 | 43 | 0 | 0.0 | 0.9 | 0.00 | 0.14 | 0.00 | 83 | 1008.8 |
| 20260509072036 | 42 | 0 | 0.0 | 0.9 | 0.00 | 0.14 | 0.00 | 84 | 1008.9 |
| 20260509071545 | 42 | 0 | 0.0 | 0.9 | 0.00 | 0.14 | 0.00 | 84 | 1008.9 |
| 20260509071036 | 41 | 0 | 0.0 | 0.0 | 0.00 | 0.14 | 0.00 | 84 | 1009.0 |
| 20260509070536 | 41 | 0 | 0.0 | 0.0 | 0.00 | 0.14 | 0.00 | 84 | 1009.2 |
| 20260509070043 | 41 | 0 | 0.0 | 0.9 | 0.00 | 0.14 | 0.00 | 84 | 1009.3 |
| 20260509065537 | 41 | 0 | 0.0 | 0.9 | 0.00 | 0.14 | 0.00 | 82 | 1009.3 |
| 20260509065036 | 41 | 0 | 0.0 | 0.0 | 0.00 | 0.14 | 0.00 | 82 | 1009.5 |
| 20260509064541 | 42 | 0 | 0.0 | 0.0 | 0.00 | 0.14 | 0.00 | 82 | 1009.4 |
| 20260509064040 | 42 | 0 | 0.0 | 0.0 | 0.00 | 0.14 | 0.00 | 81 | 1009.5 |
| 20260509063538 | 42 | 0 | 0.0 | 0.0 | 0.00 | 0.14 | 0.00 | 81 | 1009.5 |
| 20260509063043 | 42 | 0 | 0.0 | 0.0 | 0.00 | 0.14 | 0.00 | 80 | 1009.5 |
| 20260509062536 | 42 | 0 | 0.0 | 0.0 | 0.00 | 0.14 | 0.00 | 80 | 1009.6 |
| 20260509062033 | 42 | 0 | 0.0 | 0.0 | 0.00 | 0.14 | 0.00 | 80 | 1009.7 |
| 20260509061547 | 42 | 0 | 0.0 | 0.0 | 0.00 | 0.14 | 0.00 | 80 | 1009.7 |
| 20260509061036 | 43 | 169 | 0.0 | 0.0 | 0.00 | 0.14 | 0.00 | 79 | 1009.8 |
| 20260509060536 | 43 | 0 | 0.0 | 0.9 | 0.00 | 0.14 | 0.00 | 79 | 1009.8 |
| 20260509060057 | 43 | 0 | 0.0 | 0.9 | 0.00 | 0.14 | 0.00 | 77 | 1009.8 |
| 20260509055536 | 43 | 141 | 0.0 | 0.9 | 0.00 | 0.14 | 0.00 | 77 | 1009.9 |
| 20260509055037 | 43 | 0 | 0.0 | 0.0 | 0.00 | 0.14 | 0.00 | 76 | 1010.0 |
| 20260509054549 | 43 | 0 | 0.0 | 0.0 | 0.00 | 0.14 | 0.00 | 76 | 1009.7 |
| 20260509054040 | 43 | 0 | 0.0 | 0.0 | 0.00 | 0.14 | 0.00 | 75 | 1010.1 |
| 20260509053537 | 43 | 0 | 0.0 | 0.0 | 0.00 | 0.14 | 0.00 | 75 | 1010.3 |
| 20260509053110 | 43 | 0 | 0.0 | 0.0 | 0.00 | 0.14 | 0.00 | 76 | 1010.3 |
| 20260509052540 | 42 | 0 | 0.0 | 0.0 | 0.00 | 0.14 | 0.00 | 75 | 1010.3 |
| 20260509052038 | 42 | 0 | 0.0 | 0.0 | 0.00 | 0.14 | 0.00 | 75 | 1010.3 |
| 20260509051547 | 42 | 0 | 0.0 | 0.0 | 0.00 | 0.14 | 0.00 | 75 | 1010.2 |
| 20260509051036 | 42 | 0 | 0.0 | 0.0 | 0.00 | 0.14 | 0.00 | 75 | 1010.4 |
| 20260509050536 | 42 | 0 | 0.0 | 0.0 | 0.00 | 0.14 | 0.00 | 74 | 1010.4 |
| 20260509050043 | 42 | 0 | 0.0 | 0.0 | 0.00 | 0.14 | 0.00 | 75 | 1010.3 |
| 20260509045536 | 42 | 0 | 0.0 | 0.0 | 0.00 | 0.14 | 0.00 | 74 | 1010.4 |
| 20260509045036 | 42 | 0 | 0.0 | 0.0 | 0.00 | 0.14 | 0.00 | 74 | 1010.4 |
| 20260509044609 | 41 | 0 | 0.0 | 0.0 | 0.00 | 0.14 | 0.00 | 74 | 1010.4 |
| 20260509044036 | 41 | 0 | 0.0 | 0.0 | 0.00 | 0.14 | 0.00 | 74 | 1010.4 |
| 20260509043535 | 41 | 0 | 0.0 | 0.0 | 0.00 | 0.14 | 0.00 | 74 | 1010.3 |
| 20260509043125 | 42 | 0 | 0.0 | 0.0 | 0.00 | 0.14 | 0.00 | 74 | 1010.4 |
| 20260509042537 | 42 | 0 | 0.0 | 0.0 | 0.00 | 0.14 | 0.00 | 73 | 1010.4 |
| 20260509042037 | 42 | 0 | 0.0 | 0.9 | 0.00 | 0.14 | 0.00 | 72 | 1010.4 |
| 20260509041549 | 42 | 0 | 0.0 | 0.9 | 0.00 | 0.14 | 0.00 | 73 | 1010.4 |
| 20260509041036 | 42 | 0 | 0.0 | 0.9 | 0.00 | 0.14 | 0.00 | 73 | 1010.4 |
| 20260509040535 | 42 | 0 | 0.0 | 0.0 | 0.00 | 0.14 | 0.00 | 72 | 1010.4 |
| 20260509040044 | 42 | 0 | 0.0 | 0.0 | 0.00 | 0.14 | 0.00 | 72 | 1010.4 |
| 20260509035534 | 42 | 0 | 0.0 | 0.0 | 0.00 | 0.14 | 0.14 | 72 | 1010.3 |
| 20260509035035 | 42 | 0 | 0.0 | 0.0 | 0.00 | 0.14 | 0.14 | 72 | 1010.4 |
| 20260509034549 | 42 | 0 | 0.0 | 0.0 | 0.00 | 0.14 | 0.14 | 72 | 1010.5 |
| 20260509034036 | 42 | 0 | 0.0 | 0.0 | 0.00 | 0.14 | 0.14 | 72 | 1010.5 |
| 20260509033536 | 42 | 0 | 0.0 | 0.0 | 0.00 | 0.14 | 0.14 | 72 | 1010.5 |
| 20260509033050 | 43 | 0 | 0.0 | 0.0 | 0.00 | 0.14 | 0.14 | 72 | 1010.5 |
| 20260509032536 | 43 | 0 | 0.0 | 0.9 | 0.00 | 0.14 | 0.14 | 72 | 1010.5 |
| 20260509032035 | 43 | 0 | 0.0 | 0.9 | 0.00 | 0.14 | 0.14 | 72 | 1010.5 |
| 20260509031559 | 43 | 0 | 0.0 | 0.9 | 0.00 | 0.14 | 0.14 | 71 | 1010.4 |
| 20260509031037 | 44 | 122 | 0.0 | 0.9 | 0.00 | 0.14 | 0.14 | 70 | 1010.4 |
| 20260509030536 | 44 | 0 | 0.0 | 0.9 | 0.00 | 0.14 | 0.14 | 69 | 1010.5 |
| 20260509030108 | 44 | 0 | 0.0 | 0.9 | 0.00 | 0.14 | 0.14 | 69 | 1010.4 |
| 20260509025536 | 43 | 0 | 0.0 | 0.9 | 0.00 | 0.14 | 0.14 | 69 | 1010.5 |
| 20260509025038 | 43 | 0 | 0.0 | 0.9 | 0.00 | 0.14 | 0.14 | 69 | 1010.5 |
| 20260509024546 | 44 | 0 | 0.0 | 0.9 | 0.00 | 0.14 | 0.14 | 70 | 1010.5 |
| 20260509024036 | 44 | 0 | 0.0 | 0.9 | 0.00 | 0.14 | 0.14 | 69 | 1010.5 |
| 20260509023537 | 44 | 131 | 0.0 | 0.9 | 0.00 | 0.14 | 0.14 | 68 | 1010.6 |
| 20260509023048 | 44 | 0 | 0.0 | 0.9 | 0.00 | 0.14 | 0.14 | 67 | 1010.6 |
| 20260509022536 | 45 | 145 | 0.0 | 0.9 | 0.00 | 0.14 | 0.14 | 66 | 1010.7 |
| 20260509022036 | 45 | 0 | 0.0 | 0.9 | 0.00 | 0.14 | 0.14 | 66 | 1010.8 |
| 20260509021556 | 45 | 0 | 0.0 | 0.9 | 0.00 | 0.14 | 0.14 | 67 | 1010.7 |
| 20260509021037 | 45 | 0 | 0.0 | 0.9 | 0.00 | 0.14 | 0.14 | 68 | 1010.8 |
| 20260509020537 | 45 | 0 | 0.0 | 0.0 | 0.00 | 0.14 | 0.14 | 67 | 1010.8 |
| 20260509020042 | 45 | 0 | 0.0 | 0.0 | 0.00 | 0.14 | 0.14 | 66 | 1010.9 |
| 20260509015536 | 45 | 0 | 0.0 | 0.9 | 0.00 | 0.14 | 0.14 | 67 | 1010.8 |
| 20260509015036 | 45 | 0 | 0.0 | 0.9 | 0.00 | 0.14 | 0.14 | 67 | 1010.7 |
| 20260509014542 | 44 | 0 | 0.0 | 0.9 | 0.00 | 0.14 | 0.14 | 68 | 1010.7 |
| 20260509014037 | 44 | 187 | 0.0 | 0.0 | 0.00 | 0.14 | 0.14 | 68 | 1010.6 |
| 20260509013536 | 44 | 0 | 0.0 | 0.0 | 0.00 | 0.14 | 0.14 | 68 | 1010.6 |
| 20260509013040 | 44 | 0 | 0.0 | 0.0 | 0.00 | 0.14 | 0.14 | 68 | 1010.6 |
| 20260509012536 | 44 | 0 | 0.0 | 0.0 | 0.00 | 0.14 | 0.14 | 68 | 1010.6 |
| 20260509012036 | 44 | 0 | 0.0 | 0.0 | 0.00 | 0.14 | 0.14 | 68 | 1010.6 |
| 20260509011545 | 44 | 0 | 0.0 | 0.0 | 0.00 | 0.14 | 0.14 | 68 | 1010.3 |
| 20260509011036 | 44 | 0 | 0.0 | 0.0 | 0.00 | 0.14 | 0.14 | 67 | 1010.3 |
| 20260509010536 | 44 | 0 | 0.0 | 0.0 | 0.00 | 0.14 | 0.14 | 67 | 1010.3 |
| 20260509010043 | 44 | 0 | 0.0 | 0.0 | 0.00 | 0.14 | 0.14 | 66 | 1010.1 |
| 20260509005536 | 45 | 0 | 0.0 | 0.0 | 0.00 | 0.14 | 0.14 | 66 | 1010.0 |
| 20260509005035 | 45 | 0 | 0.0 | 0.0 | 0.00 | 0.14 | 0.14 | 65 | 1010.0 |
| 20260509004552 | 45 | 0 | 0.0 | 0.0 | 0.00 | 0.14 | 0.14 | 64 | 1010.0 |
| 20260509004033 | 46 | 0 | 0.0 | 0.0 | 0.00 | 0.14 | 0.14 | 64 | 1009.9 |
| 20260509003533 | 46 | 0 | 0.0 | 0.0 | 0.00 | 0.14 | 0.14 | 63 | 1010.0 |
| 20260509003049 | 47 | 0 | 0.0 | 0.0 | 0.00 | 0.14 | 0.14 | 62 | 1009.9 |
| 20260509002532 | 47 | 0 | 0.0 | 0.0 | 0.00 | 0.14 | 0.14 | 61 | 1009.8 |
| 20260509002035 | 48 | 0 | 0.0 | 0.0 | 0.00 | 0.14 | 0.14 | 61 | 1009.8 |
| 20260509001540 | 49 | 0 | 0.0 | 0.0 | 0.00 | 0.14 | 0.14 | 61 | 1009.8 |
| 20260509001036 | 49 | 0 | 0.0 | 0.0 | 0.00 | 0.14 | 0.14 | 59 | 1009.9 |
| 20260509000537 | 50 | 0 | 0.0 | 0.9 | 0.00 | 0.14 | 0.14 | 58 | 1009.9 |
| 20260509000047 | 51 | 0 | 0.0 | 0.9 | 0.00 | 0.14 | 0.14 | 56 | 1009.9 |
| 20260508235532 | 52 | 0 | 0.0 | 0.9 | 0.00 | 0.14 | 0.14 | 55 | 1009.9 |
| 20260508235036 | 53 | 0 | 0.0 | 1.7 | 0.00 | 0.14 | 0.14 | 52 | 1009.9 |
| 20260508234543 | 53 | 0 | 0.0 | 2.6 | 0.00 | 0.14 | 0.14 | 53 | 1009.9 |
| 20260508234036 | 54 | 0 | 0.0 | 2.6 | 0.00 | 0.14 | 0.14 | 53 | 1009.8 |
| 20260508233536 | 54 | 0 | 0.0 | 1.7 | 0.00 | 0.14 | 0.14 | 55 | 1009.7 |
| 20260508233041 | 54 | 0 | 0.0 | 2.6 | 0.00 | 0.14 | 0.14 | 55 | 1009.7 |
| 20260508232537 | 53 | 0 | 0.0 | 2.6 | 0.00 | 0.14 | 0.14 | 55 | 1009.7 |
| 20260508232035 | 53 | 54 | 0.9 | 2.6 | 0.00 | 0.14 | 0.14 | 53 | 1009.6 |
| 20260508231542 | 54 | 49 | 0.0 | 2.6 | 0.00 | 0.14 | 0.14 | 53 | 1009.5 |
| 20260508231033 | 54 | 60 | 0.9 | 2.6 | 0.00 | 0.14 | 0.14 | 52 | 1009.5 |
| 20260508230535 | 54 | 0 | 0.0 | 0.9 | 0.00 | 0.14 | 0.14 | 54 | 1009.5 |
| 20260508230042 | 54 | 0 | 0.0 | 0.9 | 0.00 | 0.14 | 0.14 | 54 | 1009.4 |
| 20260508225537 | 54 | 0 | 0.0 | 6.1 | 0.00 | 0.14 | 0.14 | 53 | 1009.6 |
| 20260508225037 | 54 | 298 | 0.0 | 6.1 | 0.00 | 0.14 | 0.14 | 53 | 1009.6 |
| 20260508224550 | 54 | 38 | 0.0 | 3.5 | 0.00 | 0.14 | 0.14 | 50 | 1009.5 |
| 20260508224035 | 54 | 0 | 0.9 | 3.5 | 0.00 | 0.14 | 0.14 | 45 | 1009.6 |
| 20260508223536 | 54 | 356 | 0.9 | 3.5 | 0.00 | 0.14 | 0.14 | 44 | 1009.6 |
| 20260508223050 | 54 | 325 | 1.7 | 3.5 | 0.00 | 0.14 | 0.14 | 44 | 1009.7 |
| 20260508222533 | 55 | 333 | 1.7 | 4.3 | 0.00 | 0.14 | 0.14 | 43 | 1009.7 |
| 20260508222035 | 55 | 15 | 1.7 | 6.1 | 0.00 | 0.14 | 0.14 | 44 | 1009.6 |
| 20260508221548 | 56 | 315 | 1.7 | 6.1 | 0.00 | 0.14 | 0.14 | 43 | 1009.6 |
| 20260508221036 | 56 | 323 | 2.6 | 6.1 | 0.00 | 0.14 | 0.14 | 42 | 1009.5 |
| 20260508220536 | 57 | 60 | 2.6 | 6.1 | 0.00 | 0.14 | 0.14 | 41 | 1009.4 |
| 20260508220054 | 57 | 22 | 0.9 | 3.5 | 0.00 | 0.14 | 0.14 | 42 | 1009.5 |
| 20260508215535 | 57 | 333 | 1.7 | 4.3 | 0.00 | 0.14 | 0.14 | 42 | 1009.6 |
| 20260508215032 | 56 | 303 | 1.7 | 4.3 | 0.00 | 0.14 | 0.14 | 43 | 1009.6 |
| 20260508214539 | 56 | 278 | 2.6 | 5.2 | 0.00 | 0.14 | 0.14 | 44 | 1009.6 |
| 20260508214036 | 57 | 316 | 1.7 | 5.2 | 0.00 | 0.14 | 0.14 | 41 | 1009.7 |
| 20260508213535 | 56 | 51 | 0.0 | 3.5 | 0.00 | 0.14 | 0.14 | 47 | 1009.7 |
| 20260508213045 | 55 | 315 | 1.7 | 3.5 | 0.00 | 0.14 | 0.14 | 47 | 1009.8 |
| 20260508212535 | 55 | 302 | 0.9 | 3.5 | 0.00 | 0.14 | 0.14 | 47 | 1009.9 |
| 20260508212037 | 55 | 319 | 1.7 | 5.2 | 0.00 | 0.14 | 0.14 | 45 | 1010.0 |
| 20260508211553 | 55 | 331 | 1.7 | 5.2 | 0.00 | 0.14 | 0.14 | 46 | 1010.0 |
| 20260508211035 | 55 | 34 | 2.6 | 6.1 | 0.00 | 0.14 | 0.14 | 45 | 1009.9 |
| 20260508210536 | 54 | 330 | 2.6 | 7.0 | 0.00 | 0.14 | 0.14 | 47 | 1010.0 |
| 20260508210051 | 54 | 304 | 2.6 | 7.0 | 0.00 | 0.14 | 0.14 | 48 | 1010.0 |
| 20260508205541 | 54 | 340 | 0.9 | 6.1 | 0.00 | 0.14 | 0.14 | 48 | 1010.0 |
| 20260508205035 | 54 | 355 | 1.7 | 6.1 | 0.00 | 0.14 | 0.14 | 49 | 1010.0 |
| 20260508204549 | 54 | 351 | 3.5 | 6.1 | 0.00 | 0.14 | 0.14 | 44 | 1009.9 |
| 20260508204035 | 55 | 281 | 1.7 | 7.0 | 0.00 | 0.14 | 0.14 | 46 | 1010.1 |
| 20260508203535 | 56 | 326 | 2.6 | 7.0 | 0.00 | 0.14 | 0.14 | 44 | 1010.0 |
| 20260508203058 | 56 | 308 | 2.6 | 6.1 | 0.00 | 0.14 | 0.14 | 45 | 1010.1 |
| 20260508202535 | 55 | 340 | 2.6 | 6.1 | 0.00 | 0.14 | 0.14 | 49 | 1010.0 |
| 20260508202036 | 55 | 309 | 3.5 | 6.1 | 0.00 | 0.14 | 0.14 | 47 | 1010.1 |
| 20260508201543 | 55 | 309 | 2.6 | 5.2 | 0.00 | 0.14 | 0.14 | 51 | 1010.1 |
| 20260508201035 | 54 | 15 | 1.7 | 6.1 | 0.00 | 0.14 | 0.14 | 48 | 1010.2 |
| 20260508200535 | 54 | 272 | 2.6 | 6.1 | 0.00 | 0.14 | 0.14 | 47 | 1010.1 |
| 20260508200049 | 54 | 297 | 2.6 | 6.1 | 0.00 | 0.14 | 0.14 | 48 | 1010.2 |
| 20260508195538 | 53 | 274 | 2.6 | 6.1 | 0.00 | 0.15 | 0.14 | 49 | 1010.3 |
| 20260508195035 | 54 | 320 | 2.6 | 6.1 | 0.00 | 0.15 | 0.14 | 50 | 1010.4 |
| 20260508194548 | 54 | 310 | 2.6 | 6.1 | 0.00 | 0.15 | 0.14 | 48 | 1010.4 |
| 20260508194038 | 54 | 347 | 1.7 | 5.2 | 0.00 | 0.15 | 0.14 | 57 | 1010.5 |
| 20260508193537 | 53 | 32 | 1.7 | 6.1 | 0.00 | 0.15 | 0.14 | 53 | 1010.7 |
| 20260508193048 | 53 | 316 | 0.9 | 6.1 | 0.00 | 0.15 | 0.14 | 55 | 1010.7 |
| 20260508192539 | 53 | 296 | 2.6 | 5.2 | 0.00 | 0.15 | 0.14 | 53 | 1010.9 |
| 20260508192037 | 53 | 25 | 3.5 | 5.2 | 0.00 | 0.15 | 0.14 | 54 | 1010.9 |
| 20260508191550 | 53 | 329 | 1.7 | 3.5 | 0.00 | 0.15 | 0.14 | 60 | 1010.9 |
| 20260508191037 | 52 | 344 | 0.0 | 3.5 | 0.00 | 0.15 | 0.14 | 61 | 1010.8 |
| 20260508190537 | 51 | 290 | 0.9 | 4.3 | 0.00 | 0.15 | 0.14 | 59 | 1010.9 |
| 20260508190047 | 52 | 16 | 2.6 | 5.2 | 0.00 | 0.15 | 0.14 | 59 | 1010.9 |
| 20260508185537 | 52 | 320 | 1.7 | 6.1 | 0.00 | 0.15 | 0.14 | 59 | 1011.0 |
| 20260508185037 | 52 | 323 | 2.6 | 6.1 | 0.00 | 0.15 | 0.14 | 60 | 1010.9 |
| 20260508184545 | 52 | 314 | 3.5 | 7.0 | 0.00 | 0.15 | 0.14 | 58 | 1010.9 |
| 20260508184037 | 53 | 309 | 2.6 | 7.8 | 0.00 | 0.15 | 0.14 | 56 | 1011.0 |
| 20260508183538 | 54 | 263 | 4.3 | 7.8 | 0.00 | 0.15 | 0.14 | 60 | 1011.2 |
| 20260508183048 | 53 | 208 | 0.9 | 6.1 | 0.00 | 0.15 | 0.14 | 60 | 1011.1 |
| 20260508182538 | 53 | 338 | 2.6 | 6.1 | 0.00 | 0.15 | 0.14 | 56 | 1011.2 |
| 20260508182037 | 52 | 139 | 2.6 | 4.3 | 0.00 | 0.15 | 0.14 | 61 | 1011.2 |
| 20260508181553 | 52 | 174 | 1.7 | 4.3 | 0.00 | 0.15 | 0.14 | 64 | 1011.2 |
| 20260508181037 | 51 | 232 | 0.0 | 5.2 | 0.00 | 0.15 | 0.14 | 60 | 1011.3 |
| 20260508180537 | 51 | 181 | 1.7 | 5.2 | 0.00 | 0.15 | 0.14 | 63 | 1011.3 |
| 20260508180049 | 51 | 280 | 1.7 | 5.2 | 0.00 | 0.15 | 0.14 | 62 | 1011.4 |
| 20260508175537 | 51 | 356 | 2.6 | 5.2 | 0.00 | 0.15 | 0.14 | 63 | 1011.6 |
| 20260508175038 | 51 | 159 | 1.7 | 7.0 | 0.00 | 0.15 | 0.14 | 64 | 1011.7 |
| 20260508174553 | 51 | 255 | 2.6 | 7.0 | 0.00 | 0.15 | 0.14 | 65 | 1011.8 |
| 20260508174037 | 51 | 295 | 2.6 | 6.1 | 0.00 | 0.15 | 0.14 | 63 | 1011.9 |
| 20260508173537 | 50 | 226 | 2.6 | 6.1 | 0.00 | 0.15 | 0.14 | 65 | 1011.9 |
| 20260508173042 | 50 | 252 | 0.9 | 4.3 | 0.00 | 0.15 | 0.14 | 68 | 1011.8 |
| 20260508172538 | 50 | 246 | 1.7 | 4.3 | 0.00 | 0.15 | 0.14 | 68 | 1011.9 |
| 20260508172037 | 49 | 217 | 1.7 | 4.3 | 0.00 | 0.15 | 0.14 | 70 | 1011.9 |
| 20260508171542 | 48 | 205 | 1.7 | 4.3 | 0.00 | 0.15 | 0.14 | 70 | 1012.1 |
| 20260508171037 | 48 | 219 | 1.7 | 4.3 | 0.00 | 0.15 | 0.14 | 68 | 1012.1 |
| 20260508170537 | 48 | 351 | 1.7 | 4.3 | 0.00 | 0.15 | 0.14 | 69 | 1012.1 |
| 20260508170049 | 48 | 263 | 0.9 | 4.3 | 0.00 | 0.15 | 0.14 | 70 | 1012.0 |
| 20260508165537 | 48 | 262 | 0.9 | 4.3 | 0.00 | 0.15 | 0.14 | 71 | 1012.0 |
| 20260508165038 | 47 | 255 | 0.9 | 3.5 | 0.00 | 0.15 | 0.14 | 70 | 1012.0 |
| 20260508164553 | 47 | 282 | 0.0 | 3.5 | 0.00 | 0.15 | 0.14 | 72 | 1012.1 |
| 20260508164037 | 47 | 295 | 1.7 | 3.5 | 0.00 | 0.15 | 0.14 | 67 | 1012.3 |
| 20260508163537 | 48 | 241 | 0.9 | 4.3 | 0.00 | 0.15 | 0.14 | 69 | 1012.3 |
| 20260508163043 | 47 | 241 | 0.0 | 4.3 | 0.00 | 0.15 | 0.14 | 71 | 1012.4 |
| 20260508162537 | 47 | 345 | 0.9 | 2.6 | 0.00 | 0.15 | 0.14 | 75 | 1012.4 |
| 20260508162037 | 47 | 323 | 1.7 | 3.5 | 0.00 | 0.15 | 0.14 | 73 | 1012.4 |
| 20260508161555 | 46 | 326 | 1.7 | 3.5 | 0.00 | 0.15 | 0.14 | 76 | 1012.4 |
| 20260508161037 | 46 | 274 | 0.9 | 5.2 | 0.00 | 0.15 | 0.14 | 77 | 1012.4 |
| 20260508160540 | 45 | 291 | 1.7 | 5.2 | 0.00 | 0.15 | 0.14 | 79 | 1012.4 |
| 20260508160042 | 45 | 243 | 0.9 | 5.2 | 0.00 | 0.15 | 0.14 | 79 | 1012.4 |
| 20260508155536 | 45 | 216 | 1.7 | 3.5 | 0.00 | 0.15 | 0.14 | 78 | 1012.3 |
| 20260508155037 | 44 | 243 | 0.9 | 2.6 | 0.00 | 0.15 | 0.14 | 80 | 1012.3 |
| 20260508154607 | 44 | 258 | 1.7 | 2.6 | 0.00 | 0.15 | 0.14 | 79 | 1012.2 |
| 20260508154037 | 44 | 232 | 1.7 | 2.6 | 0.00 | 0.15 | 0.14 | 81 | 1012.3 |
| 20260508153537 | 44 | 162 | 0.9 | 2.6 | 0.00 | 0.15 | 0.14 | 82 | 1012.4 |
| 20260508153048 | 44 | 209 | 0.9 | 2.6 | 0.00 | 0.15 | 0.14 | 82 | 1012.3 |
| 20260508152537 | 44 | 0 | 0.0 | 1.7 | 0.00 | 0.15 | 0.14 | 84 | 1012.4 |
| 20260508152037 | 44 | 0 | 0.0 | 0.9 | 0.00 | 0.15 | 0.14 | 85 | 1012.3 |
| 20260508151543 | 43 | 227 | 0.0 | 1.7 | 0.01 | 0.15 | 0.14 | 82 | 1012.4 |
| 20260508151038 | 43 | 0 | 0.9 | 1.7 | 0.01 | 0.15 | 0.14 | 83 | 1012.4 |
| 20260508150536 | 43 | 96 | 0.0 | 1.7 | 0.01 | 0.15 | 0.14 | 83 | 1012.2 |
| 20260508150055 | 42 | 229 | 0.0 | 1.7 | 0.02 | 0.15 | 0.14 | 85 | 1012.3 |
| 20260508145540 | 42 | 243 | 0.0 | 1.7 | 0.03 | 0.15 | 0.14 | 84 | 1012.5 |
| 20260508145036 | 42 | 0 | 0.0 | 2.6 | 0.03 | 0.15 | 0.14 | 86 | 1012.4 |
| 20260508144541 | 41 | 193 | 0.9 | 2.6 | 0.03 | 0.15 | 0.14 | 86 | 1012.5 |
| 20260508144039 | 41 | 319 | 0.0 | 2.6 | 0.03 | 0.15 | 0.14 | 86 | 1012.5 |
| 20260508143538 | 41 | 211 | 0.9 | 3.5 | 0.03 | 0.15 | 0.14 | 88 | 1012.4 |
| 20260508143106 | 41 | 217 | 0.9 | 3.5 | 0.03 | 0.15 | 0.14 | 89 | 1012.3 |
| 20260508142536 | 41 | 243 | 0.0 | 1.7 | 0.04 | 0.15 | 0.14 | 91 | 1012.2 |
| 20260508142041 | 40 | 263 | 0.0 | 1.7 | 0.04 | 0.15 | 0.14 | 91 | 1012.0 |
| 20260508141546 | 40 | 227 | 0.0 | 1.7 | 0.04 | 0.14 | 0.13 | 92 | 1011.9 |
| 20260508141037 | 39 | 0 | 0.0 | 0.9 | 0.04 | 0.14 | 0.13 | 91 | 1012.2 |
| 20260508140537 | 39 | 220 | 0.0 | 0.9 | 0.05 | 0.14 | 0.13 | 90 | 1012.4 |
| 20260508140050 | 39 | 231 | 0.0 | 0.9 | 0.04 | 0.13 | 0.12 | 90 | 1012.5 |
| 20260508135537 | 39 | 248 | 0.0 | 1.7 | 0.03 | 0.12 | 0.11 | 90 | 1012.4 |
| 20260508135037 | 39 | 212 | 0.9 | 1.7 | 0.05 | 0.12 | 0.11 | 90 | 1012.3 |
| 20260508134543 | 39 | 236 | 0.0 | 1.7 | 0.06 | 0.12 | 0.11 | 91 | 1012.1 |
| 20260508134036 | 39 | 0 | 0.0 | 1.7 | 0.07 | 0.12 | 0.11 | 91 | 1012.0 |
| 20260508133537 | 39 | 200 | 0.0 | 1.7 | 0.08 | 0.12 | 0.11 | 91 | 1012.1 |
| 20260508133059 | 39 | 138 | 0.0 | 0.9 | 0.09 | 0.12 | 0.11 | 91 | 1012.1 |
| 20260508132536 | 38 | 0 | 0.0 | 1.7 | 0.09 | 0.11 | 0.10 | 91 | 1012.2 |
| 20260508132038 | 38 | 156 | 0.0 | 1.7 | 0.09 | 0.11 | 0.10 | 90 | 1012.2 |
| 20260508131546 | 38 | 241 | 0.0 | 2.6 | 0.09 | 0.10 | 0.09 | 90 | 1012.3 |
| 20260508131038 | 38 | 139 | 0.0 | 3.5 | 0.09 | 0.10 | 0.09 | 90 | 1012.3 |
| 20260508130536 | 39 | 228 | 0.9 | 4.3 | 0.08 | 0.09 | 0.08 | 89 | 1012.1 |
| 20260508130046 | 39 | 176 | 0.9 | 7.0 | 0.08 | 0.09 | 0.08 | 88 | 1012.0 |
| 20260508125538 | 39 | 148 | 1.7 | 7.0 | 0.08 | 0.09 | 0.08 | 88 | 1012.0 |
| 20260508125037 | 39 | 226 | 0.9 | 2.6 | 0.06 | 0.07 | 0.06 | 88 | 1011.9 |
| 20260508124541 | 39 | 264 | 0.9 | 3.5 | 0.05 | 0.06 | 0.05 | 88 | 1011.9 |
| 20260508124036 | 39 | 330 | 0.0 | 6.1 | 0.04 | 0.05 | 0.04 | 88 | 1011.9 |
| 20260508123536 | 39 | 310 | 0.9 | 7.0 | 0.03 | 0.04 | 0.03 | 87 | 1011.7 |
| 20260508123041 | 40 | 338 | 2.6 | 7.0 | 0.02 | 0.03 | 0.02 | 86 | 1011.7 |
| 20260508122536 | 40 | 344 | 3.5 | 7.0 | 0.01 | 0.02 | 0.01 | 86 | 1011.6 |
| 20260508122037 | 41 | 238 | 1.7 | 3.5 | 0.00 | 0.01 | 0.00 | 88 | 1011.4 |
| 20260508121549 | 41 | 356 | 0.9 | 3.5 | 0.00 | 0.01 | 0.00 | 88 | 1011.4 |
| 20260508121037 | 41 | 163 | 1.7 | 3.5 | 0.00 | 0.01 | 0.00 | 88 | 1011.1 |
| 20260508120536 | 41 | 224 | 0.9 | 3.5 | 0.00 | 0.01 | 0.00 | 88 | 1010.9 |
| 20260508120044 | 41 | 227 | 0.9 | 2.6 | 0.00 | 0.01 | 0.00 | 88 | 1010.7 |
| 20260508115538 | 41 | 0 | 0.0 | 0.9 | 0.00 | 0.01 | 0.00 | 88 | 1010.4 |
| 20260508115037 | 41 | 192 | 0.0 | 0.9 | 0.00 | 0.01 | 0.00 | 88 | 1010.2 |
| 20260508114548 | 41 | 0 | 0.0 | 0.0 | 0.00 | 0.01 | 0.00 | 88 | 1010.3 |
| 20260508114037 | 41 | 0 | 0.0 | 0.0 | 0.00 | 0.01 | 0.00 | 88 | 1010.4 |